Regional Weather Roundup
Issued by NWS Goodland, KS

Home | Current Version | Previous Version | Graphics & Text | Print | Product List | Glossary On
Versions: 1 2 3 4 5 6 7 8 9 10 11 12 13 14 15 16 17 18 19 20 21 22 23 24 25 26 27 28 29 30 31 32 33 34 35 36 37 38 39 40 41 42 43 44 45 46 47 48 49 50
000
ASUS43 KGLD 231308
RWRGLD

GOODLAND FORECAST AREA HOURLY WEATHER ROUNDUP
NATIONAL WEATHER SERVICE GOODLAND KS
600 AM MST THU FEB 23 2017

...OFFICIAL OBSERVATIONS...

CITY           SKY/WX    TMP DP  RH WIND       PRES   REMARKS
GOODLAND KS    CLOUDY    36  33  89 E23G30    29.59F
HILL CITY KS   CLOUDY    41  36  82 E21G32    29.65S
IMPERIAL NEB   CLOUDY    33  32  96 E18       29.66F FOG
MCCOOK NEB     CLOUDY    37  35  92 NE24      29.67F
AKRON CO       CLOUDY    29  28  96 NE15      29.60F FOG     WCI  18
BURLINGTON CO  CLOUDY    33  29  85 E22       29.57F
LIMON CO       CLOUDY    22  20  92 N7        29.57F
$$

...UNOFFICIAL OBSERVATIONS...

CITY           SKY/WX    TMP DP  RH WIND       PRES   REMARKS
LENORA KS        N/A     38  32  79 NE13G21     N/A
NORTON KS      CLOUDY    37  30  75 NE17G24   29.65
SHARON SPRINGS   N/A     32  26  78 NE7         N/A
TRENTON NEB      N/A     35  32  89 NE13        N/A
KIT CARSON CO    N/A     33  25  72 MISG        N/A
YUMA CO        CLOUDY    30  30 100 NE17      29.62S FOG     WCI  18
$$




USA.gov is the U.S. government's official web portal to all federal, state and local government web resources and services.